Terminal Aerodrome Forecast
Issued by NWS

Home | Current Version | Previous Version | Text Only | Print | Product List | Glossary Off
Versions: 1 2 3 4 5 6 7 8 9 10 11 12 13 14 15 16 17

000
FTUS43 KABR 011739
TAFATY
TAF
KATY 011739Z 0118/0218 19013KT P6SM VCSH SCT120
     FM011900 19013KT P6SM SCT060
     FM020000 23010KT P6SM SCT060
     FM021600 34014KT P6SM SKC=

USA.gov is the U.S. government's official web portal to all federal, state and local government web resources and services.